Regional Weather Roundup
Issued by NWS

Home | Current Version | Previous Version | Graphics & Text | Print | Product List | Glossary On
Versions: 1 2 3 4 5 6 7 8 9 10 11 12 13 14 15 16 17 18 19 20 21 22 23 24 25 26 27 28 29 30 31 32 33 34 35 36 37 38 39 40 41 42 43 44 45 46 47 48 49 50
832
ASUS44 KJAN 211703
RWRMS

MISSISSIPPI HOURLY WEATHER ROUNDUP
NATIONAL WEATHER SERVICE JACKSON MS
1200 PM CDT THU AUG 21 2014

NOTE: "FAIR: INDICATES FEW OR NO CLOUDS BELOW 12,000 FEET WITH NO
SIGNIFICANT WEATHER AND/OR OBSTRUCTIONS TO VISIBILITY.

MSZ001>002-007>008-010>013-018>021-025>028-034>036-211800-
NORTHWEST MISSISSIPPI

CITY           SKY/WX    TMP DP  RH WIND       PRES   REMARKS
CLARKSDALE     FAIR      90  77  66 SW6       30.12F HX 102
CLEVELAND      FAIR      90  76  63 W7        30.11F HX 102
GREENWOOD      MOSUNNY   88  73  61 VRB6      30.13S HX  95
GREENVILLE     MOSUNNY   90  75  61 SW9       30.11F HX 100
GRENADA        PTSUNNY   88  73  62 CALM      30.13F HX  96
OLIVE BRANCH   PTSUNNY   88  79  74 SW12G17   30.12F HX 102
OXFORD         FAIR      86  72  62 W6        30.15F HX  92
TUNICA         MOSUNNY   88  73  62 SW8       30.12S HX  96
$$

MSZ003>006-009-014>017-022>024-029>033-037>039-211800-
NORTHEAST MISSISSIPPI

CITY           SKY/WX    TMP DP  RH WIND       PRES   REMARKS
BELMONT        FAIR      87  76  68 W3        30.15F HX  97
COLUMBUS AFB   MOSUNNY   90  73  56 W7        30.14S HX  98
CORINTH        FAIR      88  73  62 W9        30.13S HX  96
GOLDN TRIANGLE MOSUNNY   91  72  52 NW8       30.15S HX  98
STARKVILLE     FAIR      90  72  55 SW3       30.14S HX  96
TUPELO         MOSUNNY   91  73  55 W5        30.14S HX  99
$$

MSZ040-058-211800-
CENTRAL MISSISSIPPI

CITY           SKY/WX    TMP DP  RH WIND       PRES   REMARKS
JACKSON INTL   PTSUNNY   90  73  57 W7        30.15R HX  98
JACKSON HAWKNS SUNNY     90  74  59 SW6       30.15S HX  99
MERIDIAN KEY   MOSUNNY   92  72  51 CALM      30.15S HX  99
MERIDIAN NAS   SUNNY     92  73  53 W6        30.15S HX 100
RAYMOND        FAIR      90  84  84 W6        30.14S HX 115
VICKSBURG      MOSUNNY   91  74  57 VRB5      30.12F HX 100
$$

MSZ059>079-211800-
SOUTH MISSISSIPPI

CITY           SKY/WX    TMP DP  RH WIND       PRES   REMARKS
BROOKHAVEN     FAIR      91  75  59 S5        30.17S HX 102
HATTIESBURG    MOSUNNY   92  71  50 CALM      30.14F HX  98
MCCOMB         MOSUNNY   91  70  49 MISG      30.15F HX  96
NATCHEZ        SUNNY     88  77  70 SW5       30.14F HX 100
PINE BELT      SUNNY     90  72  55 S5        30.17S HX  96
$$

MSZ080>082-211800-
COASTAL MISSISSIPPI

CITY           SKY/WX    TMP DP  RH WIND       PRES   REMARKS
BAY ST LOUIS   MOSUNNY  N/A N/A N/A CALM      30.14F
BILOXI         MOSUNNY   91  76  60 SW8       30.14F HX 103
PASCAGOULA     PTSUNNY   89  74  60 W5        30.13F HX  98
GULFPORT       MOSUNNY   90  74  59 S6        30.13F HX  99
$$



USA.gov is the U.S. government's official web portal to all federal, state and local government web resources and services.